Showing default

PUNCH-WFI03, 63180

Orbit data source: Space-Track

PUNCH-WFI03, 63180 is an American payload satellite in SSO that was launched on Wed, 12 Mar 2025 UTC via an FALCON 9 launch vehicle from the Air Force Western Test Range (AFWTR). Payload-class satellites include a variety of spacecraft equipped with specific instruments for various scientific and technological missions. These include communications satellites like Starlink; space stations such as the ISS; scientific satellites like the Hubble; Earth observation satellites from companies like Planet Labs, Umbra, and HawkEye 360; GPS; miniature CubeSats for education and research; and military/defense satellites.

Loading next visibility...
Identifier
63180, 2025-047C
Orbit
SSO
Country
Flag of USUS
Related business
Manufacturer
SWRI
Mission
Operational Civil Astronomy
Bus & Motor
PUNCH, Unknown motor
Mass
64 kg wet, 64 kg dry
Launch date (UTC)
2025-03-12 (1 year ago)
Launch vehicle
FALCON 9
Launch site
Air Force Western Test Range (AFWTR)
Object type
Payload
Rocket body
Debris
Shape & HBR
Box + 1 Pan, 1.9 m
Radar Cross Section
0.625 m², Medium (>0.1 m² and < 1m²)

Expand to show TLE details & history
Last TLE update: 7 hours ago

TLE from 7 hours ago
0 PUNCH-WFI03
1 63180U 25047C   26125.38882280  .00000579  00000-0  94954-4 0  9997
2 63180  97.9547 311.2202 0008944 311.6204  48.4238 14.74304447 61750
Epoch: 2026-05-05T09:19Z
TLE epoch observation values (Epoch: 2026-05-05T09:19:54.289Z)
Latitude
-0.00003°
Longitude
-52.02037°
Altitude
646.205 km
Speed
7.537 km/s
True Right ascension
20h 44m 52s
True Declination
0° 00' 00"
Sunlit
Object was in daylight at epoch
Visualization orbit readout
Latitude
Unknown
Longitude
Unknown
Altitude
Unknown
Speed
Unknown
Apparent Right ascension
Unknown
Apparent Declination
Unknown
Sunlit
N/A
Visualization observer readout
Local Sidereal Time
23:56:10
Azimuth
Unknown
Elevation
Unknown
Doppler factor
Unknown
Orbital elements
Apogee altitude
650.692 km
Perigee altitude
638.13 km
Semi-major axis
7,022.548 km
Eccentricity
0.00089
Inclination
97.9547°
RAAN
311.2202°
Arg. of periapsis
311.6204°
True anomaly
48.50053°
Mean anomaly
48.4238°
Eccentric anomaly
48.46216°
Mean motion
3.68809 °/min
Orbital period
97.61 mins
BSTAR
0.000094954
Loading maneuver chart data...
Computing Atmospheric mass density...
Loading historical data...
Loading historical data...
Loading historical data...
Loading historical data...
Loading historical data...
Loading historical data...
Loading historical data...
Other satellites on launch #47 in the year 2025 (2025-03-12 UTC)

Documentation

Showing up to 5 results
|